�������l�o���
Date,Time,MP-1(��Sv/h),MP-2(��Sv/h),MP-3(��Sv/h),MP-4(��Sv/h),MP-5(��Sv/h),MP-6(��Sv/h),MP-7(��Sv/h),MP-8(��Sv/h),����,����(m/s),���J
2023/10/22,00:00,0.527,0.803,0.493,1.005,0.725,0.321,0.571,0.531,�k��,7.0,��
2023/10/22,00:10,0.528,0.802,0.492,1.004,0.722,0.322,0.570,0.533,�k��,5.6,��
2023/10/22,00:20,0.526,0.803,0.493,1.004,0.726,0.319,0.571,0.532,�k��,7.3,��
2023/10/22,00:30,0.528,0.801,0.491,1.007,0.721,0.320,0.570,0.531,�k��,5.4,��
2023/10/22,00:40,0.526,0.801,0.492,1.004,0.722,0.319,0.571,0.533,�k�k��,6.1,��
2023/10/22,00:50,0.526,0.803,0.494,1.007,0.724,0.319,0.570,0.531,�k��,7.4,��
2023/10/22,01:00,0.527,0.800,0.493,1.004,0.722,0.321,0.570,0.532,�k��,7.5,��
2023/10/22,01:10,0.526,0.802,0.492,1.005,0.724,0.319,0.571,0.532,�k��,8.7,��
2023/10/22,01:20,0.527,0.802,0.491,1.005,0.721,0.320,0.569,0.533,�k��,6.6,��
2023/10/22,01:30,0.525,0.801,0.493,1.006,0.721,0.319,0.569,0.533,���k��,5.8,��
2023/10/22,01:40,0.528,0.802,0.492,1.006,0.723,0.321,0.570,0.532,��,8.5,��
2023/10/22,01:50,0.526,0.801,0.490,1.003,0.722,0.318,0.569,0.532,���k��,7.3,��
2023/10/22,02:00,0.525,0.801,0.491,1.005,0.723,0.321,0.571,0.532,���k��,9.6,��
2023/10/22,02:10,0.527,0.801,0.493,1.007,0.722,0.319,0.570,0.532,���k��,8.9,��
2023/10/22,02:20,0.528,0.801,0.493,1.003,0.722,0.320,0.570,0.533,���k��,8.8,��
2023/10/22,02:30,0.526,0.803,0.491,1.005,0.722,0.319,0.570,0.533,���k��,9.3,��
2023/10/22,02:40,0.526,0.802,0.492,1.004,0.721,0.320,0.569,0.533,���k��,9.3,��
2023/10/22,02:50,0.527,0.801,0.493,1.005,0.722,0.320,0.571,0.533,���k��,9.2,��
2023/10/22,03:00,0.527,0.802,0.491,1.005,0.723,0.319,0.569,0.532,���k��,8.8,��
2023/10/22,03:10,0.526,0.801,0.492,1.006,0.723,0.318,0.570,0.533,���k��,8.3,��
2023/10/22,03:20,0.527,0.801,0.493,1.005,0.722,0.319,0.571,0.533,���k��,6.5,��
2023/10/22,03:30,0.528,0.802,0.491,1.005,0.722,0.319,0.570,0.533,���k��,6.9,��
2023/10/22,03:40,0.526,0.801,0.492,1.005,0.723,0.320,0.571,0.533,���k��,7.0,��
2023/10/22,03:50,0.527,0.802,0.493,1.006,0.722,0.321,0.570,0.533,�k��,6.4,��
2023/10/22,04:00,0.526,0.802,0.491,1.005,0.722,0.319,0.570,0.533,���k��,6.8,��
2023/10/22,04:10,0.526,0.801,0.490,1.006,0.721,0.319,0.569,0.532,���k��,6.6,��
2023/10/22,04:20,0.524,0.800,0.492,1.002,0.722,0.320,0.570,0.533,���k��,5.3,��
2023/10/22,04:30,0.526,0.802,0.491,1.004,0.722,0.319,0.571,0.533,���k��,4.8,��
2023/10/22,04:40,0.526,0.801,0.491,1.005,0.724,0.318,0.570,0.533,���k��,4.8,��
2023/10/22,04:50,0.526,0.802,0.492,1.004,0.721,0.320,0.571,0.533,���k��,4.2,��
2023/10/22,05:00,0.525,0.800,0.491,1.003,0.720,0.318,0.570,0.531,���k��,5.0,��
2023/10/22,05:10,0.527,0.801,0.491,1.003,0.721,0.319,0.570,0.533,���k��,4.3,��
2023/10/22,05:20,0.525,0.801,0.491,1.003,0.721,0.318,0.570,0.533,���k��,5.6,��
2023/10/22,05:30,0.525,0.798,0.492,1.004,0.722,0.319,0.570,0.531,���k��,4.9,��
2023/10/22,05:40,0.524,0.802,0.491,1.003,0.723,0.318,0.571,0.533,���k��,4.5,��
2023/10/22,05:50,0.525,0.800,0.491,1.003,0.721,0.320,0.570,0.532,��,4.0,��
2023/10/22,06:00,0.525,0.802,0.490,1.003,0.719,0.319,0.572,0.532,��,3.1,��
2023/10/22,06:10,0.526,0.799,0.491,1.004,0.719,0.318,0.571,0.531,��,2.6,��
2023/10/22,06:20,0.526,0.801,0.491,1.002,0.720,0.319,0.571,0.532,���k��,3.3,��
2023/10/22,06:30,0.525,0.802,0.492,1.004,0.722,0.319,0.570,0.533,���k��,5.5,��
2023/10/22,06:40,0.525,0.800,0.489,1.003,0.722,0.319,0.569,0.532,���k��,4.8,��
2023/10/22,06:50,0.525,0.801,0.491,1.003,0.722,0.319,0.571,0.531,��,5.4,��
2023/10/22,07:00,0.526,0.801,0.491,1.003,0.722,0.319,0.569,0.531,��,4.3,��
2023/10/22,07:10,0.525,0.803,0.492,1.003,0.721,0.319,0.572,0.530,��,5.1,��
2023/10/22,07:20,0.528,0.803,0.492,1.003,0.720,0.319,0.571,0.531,���k��,4.5,��
2023/10/22,07:30,0.526,0.801,0.491,1.003,0.722,0.319,0.573,0.531,���k��,2.8,��
2023/10/22,07:40,0.525,0.802,0.491,1.004,0.722,0.319,0.572,0.531,���k��,1.5,��
2023/10/22,07:50,0.526,0.802,0.490,1.003,0.721,0.319,0.571,0.531,���k��,1.1,��
2023/10/22,08:00,0.525,0.801,0.491,1.004,0.721,0.319,0.572,0.532,�쐼,1.2,��
2023/10/22,08:10,0.527,0.800,0.492,1.007,0.722,0.320,0.572,0.531,���쐼,2.3,��
2023/10/22,08:20,0.526,0.799,0.492,1.003,0.722,0.319,0.574,0.530,��,1.1,��
2023/10/22,08:30,0.527,0.801,0.491,1.003,0.722,0.319,0.573,0.530,��쐼,1.7,��
2023/10/22,08:40,0.527,0.799,0.493,1.004,0.723,0.320,0.571,0.531,���k��,2.0,��
2023/10/22,08:50,0.526,0.800,0.492,1.004,0.720,0.321,0.571,0.532,���k��,3.5,��
2023/10/22,09:00,0.526,0.801,0.492,1.005,0.723,0.320,0.571,0.530,���k��,2.9,��
2023/10/22,09:10,0.525,0.800,0.493,1.003,0.722,0.321,0.570,0.531,���k��,1.5,��
2023/10/22,09:20,0.524,0.800,0.492,1.004,0.721,0.320,0.570,0.532,���k��,3.7,��
2023/10/22,09:30,0.527,0.800,0.493,1.004,0.723,0.321,0.571,0.533,���k��,2.0,��
2023/10/22,09:40,0.526,0.801,0.493,1.004,0.723,0.320,0.571,0.533,�k��,0.8,��
2023/10/22,09:50,0.525,0.800,0.494,1.005,0.722,0.318,0.571,0.531,�k��,2.8,��
2023/10/22,10:00,0.525,0.799,0.493,1.006,0.722,0.318,0.571,0.531,�k�k��,2.8,��
2023/10/22,10:10,0.525,0.801,0.493,1.006,0.719,0.319,0.571,0.531,�k��,2.6,��
2023/10/22,10:20,0.525,0.801,0.493,1.005,0.720,0.319,0.572,0.529,��,2.3,��
2023/10/22,10:30,0.524,0.802,0.491,1.006,0.722,0.319,0.571,0.530,���쓌,3.1,��
2023/10/22,10:40,0.525,0.801,0.490,1.005,0.720,0.318,0.570,0.530,��쓌,1.9,��
2023/10/22,10:50,0.526,0.802,0.490,1.006,0.722,0.317,0.570,0.532,�쓌,1.4,��
2023/10/22,11:00,0.524,0.800,0.491,1.006,0.721,0.318,0.571,0.531,���쓌,1.5,��
2023/10/22,11:10,0.527,0.804,0.492,1.006,0.722,0.319,0.571,0.530,�k��,1.9,��
2023/10/22,11:20,0.527,0.801,0.491,1.006,0.722,0.319,0.571,0.534,�k��,1.5,��
2023/10/22,11:30,0.526,0.801,0.493,1.005,0.722,0.318,0.571,0.531,�k,2.0,��
2023/10/22,11:40,0.526,0.799,0.491,1.004,0.722,0.319,0.571,0.532,�k�k��,2.5,��
2023/10/22,11:50,0.525,0.801,0.491,1.006,0.722,0.319,0.571,0.531,���k��,5.7,��
2023/10/22,12:00,0.527,0.803,0.490,1.007,0.720,0.319,0.572,0.533,��,8.5,��
2023/10/22,12:10,0.525,0.803,0.491,1.007,0.722,0.321,0.570,0.531,��,7.2,��
2023/10/22,12:20,0.526,0.801,0.492,1.005,0.722,0.321,0.571,0.529,��,8.5,��
2023/10/22,12:30,0.527,0.802,0.491,1.004,0.724,0.320,0.572,0.532,��,7.7,��
2023/10/22,12:40,0.526,0.804,0.491,1.007,0.722,0.321,0.571,0.529,���쐼,7.4,��
2023/10/22,12:50,0.526,0.801,0.491,1.007,0.723,0.320,0.572,0.531,��,8.0,��
2023/10/22,13:00,0.527,0.802,0.494,1.009,0.724,0.320,0.573,0.529,��,8.8,��
2023/10/22,13:10,0.526,0.804,0.494,1.006,0.724,0.320,0.570,0.531,��,7.1,��
2023/10/22,13:20,0.528,0.803,0.492,1.008,0.724,0.318,0.571,0.530,��,8.0,��
2023/10/22,13:30,0.525,0.802,0.494,1.006,0.724,0.319,0.571,0.530,���k��,6.2,��
2023/10/22,13:40,0.528,0.804,0.492,1.009,0.725,0.321,0.570,0.530,���k��,7.3,��
2023/10/22,13:50,0.526,0.802,0.492,1.008,0.723,0.320,0.571,0.533,��,8.6,��
2023/10/22,14:00,0.527,0.804,0.493,1.006,0.724,0.319,0.571,0.531,��,7.6,��
2023/10/22,14:10,0.526,0.803,0.492,1.009,0.724,0.320,0.571,0.531,��,7.2,��
2023/10/22,14:20,0.528,0.803,0.492,1.007,0.724,0.319,0.571,0.531,���k��,6.8,��
2023/10/22,14:30,0.527,0.803,0.493,1.008,0.724,0.319,0.570,0.532,��,7.9,��
2023/10/22,14:40,0.527,0.802,0.492,1.010,0.724,0.319,0.570,0.532,���쐼,6.4,��
2023/10/22,14:50,0.525,0.803,0.493,1.008,0.723,0.320,0.571,0.532,��,6.1,��
2023/10/22,15:00,0.527,0.803,0.493,1.007,0.726,0.319,0.570,0.533,���쐼,6.6,��
2023/10/22,15:10,0.526,0.804,0.492,1.007,0.727,0.318,0.571,0.532,���쐼,5.3,��
2023/10/22,15:20,0.527,0.803,0.493,1.008,0.725,0.319,0.571,0.531,���쐼,5.4,��
2023/10/22,15:30,0.527,0.802,0.493,1.006,0.726,0.319,0.569,0.531,��,4.7,��
2023/10/22,15:40,0.527,0.804,0.492,1.006,0.725,0.319,0.571,0.530,��,4.7,��
2023/10/22,15:50,0.526,0.805,0.491,1.007,0.724,0.320,0.572,0.532,��,3.8,��
2023/10/22,16:00,0.526,0.803,0.492,1.006,0.725,0.320,0.571,0.533,���k��,3.5,��
2023/10/22,16:10,0.526,0.801,0.495,1.003,0.726,0.321,0.571,0.534,��,4.1,��
2023/10/22,16:20,0.526,0.802,0.493,1.005,0.725,0.320,0.571,0.534,��,3.9,��
2023/10/22,16:30,0.525,0.803,0.493,1.006,0.725,0.320,0.571,0.535,��,2.6,��
2023/10/22,16:40,0.527,0.806,0.494,1.006,0.724,0.321,0.571,0.535,��,4.3,��
2023/10/22,16:50,0.526,0.804,0.491,1.008,0.725,0.320,0.572,0.533,��,3.7,��
2023/10/22,17:00,0.525,0.804,0.494,1.010,0.726,0.322,0.571,0.534,���쐼,4.5,��
2023/10/22,17:10,0.526,0.804,0.494,1.010,0.726,0.320,0.572,0.532,���쐼,5.1,��
2023/10/22,17:20,0.527,0.806,0.493,1.007,0.726,0.322,0.571,0.534,���쐼,4.8,��
2023/10/22,17:30,0.527,0.803,0.496,1.008,0.726,0.321,0.571,0.533,���쐼,4.7,��
2023/10/22,17:40,0.529,0.804,0.493,1.009,0.727,0.320,0.572,0.535,���쐼,4.0,��
2023/10/22,17:50,0.527,0.804,0.492,1.008,0.726,0.322,0.573,0.533,���쐼,3.3,��
2023/10/22,18:00,0.528,0.804,0.493,1.008,0.726,0.320,0.573,0.533,���쐼,2.8,��
2023/10/22,18:10,0.528,0.804,0.494,1.010,0.727,0.322,0.572,0.532,���쐼,3.6,��
2023/10/22,18:20,0.528,0.806,0.494,1.011,0.728,0.320,0.572,0.532,���쐼,4.4,��
2023/10/22,18:30,0.529,0.806,0.494,1.010,0.726,0.321,0.571,0.532,��,4.2,��
2023/10/22,18:40,0.528,0.807,0.494,1.009,0.725,0.320,0.572,0.532,���쐼,4.6,��
2023/10/22,18:50,0.529,0.806,0.493,1.011,0.724,0.320,0.574,0.532,��,4.1,��
2023/10/22,19:00,0.529,0.802,0.493,1.009,0.726,0.321,0.572,0.533,��,3.6,��
2023/10/22,19:10,0.527,0.804,0.495,1.009,0.726,0.320,0.570,0.533,��,4.4,��
2023/10/22,19:20,0.528,0.804,0.493,1.006,0.725,0.319,0.571,0.532,��,4.8,��
2023/10/22,19:30,0.528,0.804,0.494,1.011,0.725,0.320,0.571,0.532,���k��,4.2,��
2023/10/22,19:40,0.528,0.804,0.493,1.007,0.725,0.321,0.572,0.532,���k��,4.0,��
2023/10/22,19:50,0.528,0.805,0.493,1.009,0.726,0.319,0.571,0.532,��,3.6,��
2023/10/22,20:00,0.529,0.804,0.493,1.012,0.727,0.321,0.572,0.533,��,3.6,��
2023/10/22,20:10,0.527,0.804,0.493,1.008,0.726,0.320,0.574,0.531,��,2.6,��
2023/10/22,20:20,0.529,0.803,0.494,1.009,0.726,0.321,0.572,0.532,���쐼,2.6,��
2023/10/22,20:30,0.529,0.804,0.493,1.010,0.726,0.319,0.571,0.532,�쐼,2.8,��
2023/10/22,20:40,0.528,0.804,0.492,1.011,0.727,0.320,0.571,0.532,��쐼,2.9,��
2023/10/22,20:50,0.528,0.802,0.493,1.011,0.727,0.321,0.573,0.533,��쐼,2.0,��
2023/10/22,21:00,0.529,0.803,0.493,1.007,0.727,0.319,0.571,0.532,��,2.5,��
2023/10/22,21:10,0.528,0.803,0.494,1.010,0.727,0.320,0.572,0.532,��,2.9,��
2023/10/22,21:20,0.528,0.805,0.495,1.010,0.727,0.320,0.572,0.533,���쐼,0.6,��
2023/10/22,21:30,0.528,0.804,0.492,1.006,0.727,0.321,0.572,0.532,��쐼,1.5,��
2023/10/22,21:40,0.529,0.803,0.493,1.007,0.725,0.321,0.572,0.531,�쓌,1.5,��
2023/10/22,21:50,0.529,0.804,0.495,1.008,0.726,0.322,0.572,0.531,���쐼,3.8,��
2023/10/22,22:00,0.526,0.802,0.493,1.008,0.725,0.321,0.571,0.531,���쐼,6.9,��
2023/10/22,22:10,0.529,0.804,0.495,1.009,0.726,0.320,0.574,0.533,�쐼,5.9,��
2023/10/22,22:20,0.528,0.804,0.494,1.008,0.724,0.320,0.573,0.531,���k��,2.8,��
2023/10/22,22:30,0.528,0.803,0.493,1.010,0.727,0.320,0.573,0.532,���k��,2.3,��
2023/10/22,22:40,0.527,0.803,0.493,1.009,0.725,0.320,0.572,0.532,��쐼,1.2,��
2023/10/22,22:50,0.528,0.805,0.493,1.010,0.724,0.319,0.574,0.532,��,0.9,��
2023/10/22,23:00,0.528,0.805,0.491,1.007,0.726,0.319,0.572,0.530,��쐼,1.9,��
2023/10/22,23:10,0.527,0.803,0.494,1.009,0.726,0.320,0.573,0.533,�쐼,2.0,��
2023/10/22,23:20,0.527,0.803,0.494,1.007,0.725,0.321,0.572,0.532,��,2.6,��
2023/10/22,23:30,0.529,0.802,0.494,1.007,0.726,0.321,0.575,0.532,���쐼,2.0,��
2023/10/22,23:40,0.527,0.801,0.493,1.007,0.725,0.320,0.574,0.533,��,5.3,��
2023/10/22,23:50,0.528,0.803,0.494,1.009,0.726,0.320,0.574,0.533,��,8.9,��
